AAY1150 KPGD-KGSP

Flight info

Callsign AAY1150
Flight time N/A
Altitude 35000
Route ROGAN LAL
Aircraft A320/M-SDE3FGHIRWY/LB1

Departure

Time 2026-04-19 16:10
Airport Punta Gorda Airport (KPGD)

Arrival

Time N/A
Airport Greenville-Spartanburg International Airport (KGSP)
Time Latitude Longitude Altitude Speed Heading
2026-04-19 15:54 26.91581 -81.99681 31 ft 0 kts 240°
2026-04-19 16:05 26.91583 -81.99677 30 ft 3 kts 240°
2026-04-19 16:05 26.91596 -81.99651 29 ft 4 kts 240°
2026-04-19 16:05 26.91609 -81.99625 29 ft 4 kts 240°
2026-04-19 16:06 26.91621 -81.99602 29 ft 0 kts 240°
2026-04-19 16:07 26.91601 -81.99596 29 ft 4 kts 150°
2026-04-19 16:08 26.91531 -81.99551 30 ft 23 kts 149°
2026-04-19 16:08 26.91343 -81.99426 31 ft 35 kts 149°
2026-04-19 16:08 26.91134 -81.99287 31 ft 27 kts 149°
2026-04-19 16:08 26.91101 -81.99264 30 ft 0 kts 148°
2026-04-19 16:09 26.91060 -81.99228 28 ft 14 kts 124°
2026-04-19 16:09 26.91092 -81.99166 27 ft 0 kts 29°
2026-04-19 16:09 26.91165 -81.99122 27 ft 44 kts 28°
2026-04-19 16:09 26.91665 -81.98812 36 ft 118 kts 29°
2026-04-19 16:10 26.92558 -81.98253 125 ft 165 kts 27°
2026-04-19 16:10 26.93577 -81.97607 683 ft 172 kts 28°
2026-04-19 16:10 26.94628 -81.96940 1196 ft 178 kts 30°
2026-04-19 16:10 26.95727 -81.96124 1406 ft 200 kts 33°
2026-04-19 16:11 26.96896 -81.95208 1843 ft 206 kts 33°
2026-04-19 16:11 26.98176 -81.94497 2323 ft 211 kts 13°
2026-04-19 16:11 26.99708 -81.94152 2583 ft 238 kts 10°
2026-04-19 16:11 27.01421 -81.93817 3107 ft 259 kts
2026-04-19 16:12 27.03229 -81.93478 3915 ft 267 kts
2026-04-19 16:12 27.05078 -81.93131 4800 ft 272 kts
2026-04-19 16:12 27.06964 -81.92777 5717 ft 276 kts
2026-04-19 16:12 27.08873 -81.92415 6626 ft 280 kts
2026-04-19 16:13 27.10807 -81.92047 7509 ft 283 kts
2026-04-19 16:13 27.12758 -81.91672 8359 ft 286 kts
2026-04-19 16:13 27.14733 -81.91291 9223 ft 290 kts
2026-04-19 16:13 27.16729 -81.90905 10079 ft 293 kts
2026-04-19 16:14 27.18793 -81.90506 10475 ft 312 kts
2026-04-19 16:14 27.21010 -81.90081 10710 ft 335 kts
2026-04-19 16:14 27.23392 -81.89621 10908 ft 359 kts
2026-04-19 16:14 27.25916 -81.89359 11329 ft 370 kts 358°
2026-04-19 16:15 27.28507 -81.89482 11959 ft 375 kts 355°
2026-04-19 16:15 27.31125 -81.89627 12628 ft 379 kts 355°
2026-04-19 16:15 27.33772 -81.89774 13292 ft 383 kts 355°
2026-04-19 16:15 27.36444 -81.89921 13957 ft 387 kts 355°
2026-04-19 16:16 27.39149 -81.90075 14506 ft 391 kts 355°
2026-04-19 16:16 27.41878 -81.90232 15077 ft 394 kts 355°